Вернуться в каталог

CZ-6A DEB

АктивенSSO
NORAD 56599·DEBRIS·🇨🇳 China

Запущен Nov 11, 2022 с Taiyuan Satellite Launch Center

Loading…

Ближайшие Пролёты (ближайшие 24 часа)

TLE

СвежийSource: Space-Track

Эпоха: Sep 11, 2026, 19:04 UTC

1 56599U 22151ADX 26254.79446684  .00001064  00000-0  38031-3 0  9991
2 56599  98.6690 278.0346 0110705 197.1025 162.6416 14.32813041176730

Отслеживайте CZ-6A DEB в реальном времени с AllMySat

Download on the App Store